When you browse on this site, cookies collect data to enhance your experience and personalize the content and advertising you see.
Visit our Privacy Policy to learn more. By continuing to use the site, you agree to this use of cookies and data.
  • In Hungary
  • List of Countries
  • For 7 days
  • Water Temperature
  • Weather Map
  • News
  • Weather Widgets
  • user-avatar
    Login

    Hourly Weather San Juan

    Today, 27 February, Thursday

    Time Temperature Precipitation Wind Pressure Humidity
    00:00 +27°C° 0 mm 2 mps 706 mmHg 34%
    01:00 +26°C° 0 mm 2 mps 706 mmHg 36%
    02:00 +26°C° 0 mm 2 mps 706 mmHg 37%
    03:00 +25°C° 0 mm 2 mps 705 mmHg 37%
    04:00 +25°C° 0 mm 2 mps 705 mmHg 38%
    05:00 +26°C° 0 mm 2 mps 706 mmHg 36%
    06:00 +27°C° 0 mm 2 mps 706 mmHg 33%
    07:00 +29°C° 0 mm 2 mps 707 mmHg 30%
    08:00 +30°C° 0 mm 2 mps 707 mmHg 28%
    09:00 +31°C° 0 mm 2 mps 707 mmHg 26%
    10:00 +34°C° 0 mm 2 mps 707 mmHg 24%
    11:00 +35°C° 0 mm 2 mps 706 mmHg 23%
    12:00 +36°C° 0 mm 2 mps 705 mmHg 21%
    13:00 +37°C° 0 mm 3 mps 705 mmHg 19%
    14:00 +37°C° 0 mm 3 mps 704 mmHg 19%
    15:00 +38°C° 0 mm 3 mps 704 mmHg 18%
    16:00 +38°C° 0 mm 4 mps 703 mmHg 18%
    17:00 +36°C° 0 mm 4 mps 704 mmHg 21%
    18:00 +34°C° 0 mm 4 mps 704 mmHg 24%
    19:00 +33°C° 0 mm 4 mps 705 mmHg 28%
    20:00 +32°C° 0 mm 4 mps 705 mmHg 29%
    21:00 +30°C° 0 mm 4 mps 706 mmHg 30%
    22:00 +30°C° 0 mm 4 mps 706 mmHg 31%
    23:00 +29°C° 0.1 mm 3 mps 706 mmHg 33%

    Tomorrow, 28 February, Friday

    Time Temperature Precipitation Wind Pressure Humidity
    00:00 +28°C° 0.1 mm 2 mps 706 mmHg 35%
    01:00 +28°C° 0.1 mm 2 mps 705 mmHg 37%
    02:00 +27°C° 0 mm 2 mps 705 mmHg 38%
    03:00 +27°C° 0 mm 2 mps 705 mmHg 39%
    04:00 +26°C° 0 mm 2 mps 705 mmHg 40%
    05:00 +27°C° 0 mm 2 mps 706 mmHg 37%
    06:00 +29°C° 0 mm 2 mps 707 mmHg 35%
    07:00 +30°C° 0 mm 2 mps 707 mmHg 32%
    08:00 +31°C° 0 mm 2 mps 707 mmHg 29%
    09:00 +34°C° 0 mm 2 mps 707 mmHg 27%
    10:00 +35°C° 0 mm 2 mps 707 mmHg 24%
    11:00 +36°C° 0 mm 2 mps 707 mmHg 22%
    12:00 +37°C° 0 mm 3 mps 707 mmHg 20%
    13:00 +38°C° 0 mm 3 mps 707 mmHg 17%
    14:00 +39°C° 0 mm 3 mps 706 mmHg 17%
    15:00 +40°C° 0 mm 4 mps 706 mmHg 16%
    16:00 +40°C° 0 mm 4 mps 705 mmHg 16%
    17:00 +37°C° 0 mm 4 mps 706 mmHg 18%
    18:00 +36°C° 0 mm 4 mps 706 mmHg 21%
    19:00 +34°C° 0 mm 3 mps 707 mmHg 23%
    20:00 +33°C° 0.1 mm 4 mps 708 mmHg 25%
    21:00 +33°C° 0.1 mm 4 mps 708 mmHg 27%
    22:00 +32°C° 0.1 mm 4 mps 709 mmHg 28%
    23:00 +31°C° 0 mm 3 mps 709 mmHg 28%

    Day after tomorrow, 29 February, Saturday

    Time Temperature Precipitation Wind Pressure Humidity
    00:00 +30°C° 0 mm 3 mps 709 mmHg 28%
    01:00 +30°C° 0 mm 3 mps 709 mmHg 28%
    02:00 +29°C° 0 mm 3 mps 709 mmHg 30%
    03:00 +28°C° 0 mm 2 mps 709 mmHg 31%
    04:00 +27°C° 0 mm 2 mps 709 mmHg 32%
    05:00 +29°C° 0 mm 2 mps 709 mmHg 30%
    06:00 +30°C° 0 mm 2 mps 710 mmHg 28%
    07:00 +31°C° 0 mm 2 mps 710 mmHg 26%
    08:00 +34°C° 0 mm 3 mps 710 mmHg 24%
    09:00 +35°C° 0 mm 3 mps 710 mmHg 22%
    10:00 +37°C° 0 mm 4 mps 710 mmHg 20%
    11:00 +39°C° 0 mm 5 mps 710 mmHg 17%
    12:00 +40°C° 0 mm 5 mps 709 mmHg 15%
    13:00 +41°C° 0 mm 6 mps 709 mmHg 13%
    14:00 +41°C° 0 mm 7 mps 708 mmHg 13%
    15:00 +40°C° 0 mm 8 mps 708 mmHg 13%
    16:00 +40°C° 0 mm 8 mps 707 mmHg 13%
    17:00 +38°C° 0 mm 8 mps 707 mmHg 14%
    18:00 +36°C° 0 mm 7 mps 707 mmHg 16%
    19:00 +34°C° 0 mm 6 mps 708 mmHg 17%
    20:00 +34°C° 0 mm 7 mps 708 mmHg 18%
    21:00 +33°C° 0 mm 7 mps 708 mmHg 19%
    22:00 +32°C° 0 mm 7 mps 708 mmHg 20%
    23:00 +30°C° 0 mm 6 mps 708 mmHg 21%

    1 March, Sunday

    Time Temperature Precipitation Wind Pressure Humidity
    00:00 +30°C° 0 mm 6 mps 708 mmHg 22%
    01:00 +29°C° 0 mm 5 mps 707 mmHg 24%
    02:00 +29°C° 0 mm 5 mps 707 mmHg 24%
    03:00 +28°C° 0 mm 5 mps 707 mmHg 25%
    04:00 +28°C° 0 mm 5 mps 707 mmHg 26%
    05:00 +29°C° 0 mm 5 mps 707 mmHg 25%
    06:00 +30°C° 0 mm 5 mps 708 mmHg 24%
    07:00 +30°C° 0 mm 5 mps 708 mmHg 24%
    08:00 +33°C° 0 mm 6 mps 708 mmHg 22%
    09:00 +35°C° 0 mm 6 mps 708 mmHg 20%
    10:00 +36°C° 0 mm 7 mps 708 mmHg 19%
    11:00 +38°C° 0 mm 7 mps 707 mmHg 18%
    12:00 +39°C° 0 mm 8 mps 707 mmHg 17%
    13:00 +40°C° 0 mm 8 mps 706 mmHg 16%
    14:00 +40°C° 0 mm 8 mps 706 mmHg 17%
    15:00 +40°C° 0 mm 8 mps 705 mmHg 17%
    16:00 +40°C° 0 mm 7 mps 704 mmHg 17%
    17:00 +38°C° 0 mm 8 mps 705 mmHg 20%
    18:00 +35°C° 0 mm 8 mps 705 mmHg 22%
    19:00 +34°C° 0 mm 8 mps 705 mmHg 24%
    20:00 +33°C° 0 mm 8 mps 706 mmHg 25%
    21:00 +32°C° 0 mm 7 mps 706 mmHg 26%
    22:00 +30°C° 0 mm 6 mps 706 mmHg 27%
    23:00 +30°C° 0 mm 5 mps 706 mmHg 28%

    2 March, Monday

    Time Temperature Precipitation Wind Pressure Humidity
    00:00 +29°C° 0 mm 5 mps 706 mmHg 29%
    01:00 +29°C° 0 mm 4 mps 706 mmHg 30%
    02:00 +28°C° 0 mm 4 mps 705 mmHg 31%
    03:00 +27°C° 0 mm 4 mps 705 mmHg 32%
    04:00 +26°C° 0 mm 4 mps 705 mmHg 33%
    05:00 +27°C° 0 mm 3 mps 706 mmHg 32%
    06:00 +28°C° 0 mm 3 mps 706 mmHg 30%
    07:00 +29°C° 0 mm 3 mps 706 mmHg 29%
    08:00 +31°C° 0 mm 3 mps 706 mmHg 26%
    09:00 +34°C° 0 mm 4 mps 706 mmHg 24%
    10:00 +36°C° 0 mm 4 mps 706 mmHg 22%
    11:00 +37°C° 0 mm 4 mps 705 mmHg 20%
    12:00 +38°C° 0 mm 4 mps 705 mmHg 19%
    13:00 +40°C° 0 mm 4 mps 704 mmHg 17%
    14:00 +40°C° 0 mm 4 mps 704 mmHg 17%
    15:00 +40°C° 0 mm 4 mps 703 mmHg 17%
    16:00 +40°C° 0 mm 4 mps 703 mmHg 17%
    17:00 +38°C° 0 mm 4 mps 703 mmHg 20%
    18:00 +36°C° 0 mm 4 mps 703 mmHg 23%
    19:00 +34°C° 0 mm 5 mps 703 mmHg 27%
    20:00 +33°C° 0.1 mm 4 mps 704 mmHg 28%
    21:00 +33°C° 0.1 mm 4 mps 704 mmHg 30%
    22:00 +31°C° 0.1 mm 3 mps 704 mmHg 32%
    23:00 +30°C° 0 mm 3 mps 704 mmHg 33%

    3 March, Tuesday

    Time Temperature Precipitation Wind Pressure Humidity
    00:00 +29°C° 0 mm 3 mps 704 mmHg 35%
    01:00 +29°C° 0 mm 2 mps 703 mmHg 37%
    02:00 +28°C° 0 mm 2 mps 703 mmHg 39%
    03:00 +27°C° 0 mm 1 mps 703 mmHg 40%
    04:00 +27°C° 0 mm 1 mps 702 mmHg 42%
    05:00 +28°C° 0 mm 1 mps 703 mmHg 39%
    06:00 +29°C° 0 mm 2 mps 704 mmHg 36%
    07:00 +30°C° 0 mm 3 mps 705 mmHg 33%
    08:00 +33°C° 0 mm 5 mps 705 mmHg 31%
    09:00 +34°C° 0 mm 7 mps 705 mmHg 29%
    10:00 +35°C° 0 mm 9 mps 705 mmHg 26%
    11:00 +37°C° 0 mm 9 mps 705 mmHg 25%
    12:00 +38°C° 0 mm 9 mps 705 mmHg 23%
    13:00 +39°C° 0 mm 9 mps 705 mmHg 21%
    14:00 +39°C° 0 mm 8 mps 704 mmHg 20%
    15:00 +39°C° 0 mm 8 mps 704 mmHg 20%
    16:00 +39°C° 0 mm 7 mps 704 mmHg 19%
    17:00 +38°C° 0 mm 7 mps 704 mmHg 21%
    18:00 +35°C° 0 mm 6 mps 705 mmHg 22%
    19:00 +34°C° 0 mm 5 mps 705 mmHg 24%
    20:00 +33°C° 0 mm 5 mps 705 mmHg 25%
    21:00 +33°C° 0 mm 4 mps 706 mmHg 26%
    22:00 +32°C° 0 mm 4 mps 706 mmHg 27%
    23:00 +32°C° 0 mm 4 mps 707 mmHg 27%
    Show more